Date String (YYYY-MM-DD hh:mm:ss) UTC,Instrument flags,Ambient pressure (hPa),Sample flow (lpm),Bypass flow (lpm),Sample temperature (°C),Ambient temperature (°C),ASC tube jacket temperature (°C),LED temperature (°C),Box temperature (°C),Sample RH (%),Span deviation,Mass concentration (μg/m³),Mass concentration (μg/m³),Mass concentration (μg/m³)
DateTimeUTC,F1_M11,P_M11,Q1_M11,Q2_M11,T1_M11,T2_M11,T3_M11,T4_M11,T5_M11,U1_M11,ZSPAN_M11,X0_M11,X2_M11,X1_M11
2023-02-05 18:00:00,,0823.7,4.95,0.00,23.2,22.1,00.0,31.9,25.0,13.5,0000.0,0011.57,0006.53,0005.76
2023-02-05 18:01:00,,0823.7,5.01,0.00,23.2,22.1,00.0,31.9,25.0,13.7,0000.0,0011.28,0006.45,0005.69
2023-02-05 18:02:00,,0823.7,4.99,0.00,23.2,22.2,00.0,31.9,25.0,13.8,0000.0,0011.10,0006.33,0005.61
2023-02-05 18:03:00,,0823.7,4.96,0.00,23.2,22.2,00.0,31.9,25.0,13.6,0000.0,0011.22,0006.23,0005.53
2023-02-05 18:04:00,,0823.6,5.00,0.00,23.3,22.2,00.0,31.9,25.0,13.5,0000.0,0011.10,0006.14,0005.46
2023-02-05 18:05:00,,0823.6,5.03,0.00,23.3,22.2,00.0,32.0,25.0,13.5,0000.0,0011.23,0006.06,0005.38
2023-02-05 18:06:00,,0823.5,5.00,0.00,23.3,22.2,00.0,32.0,25.1,13.4,0000.0,0011.60,0006.00,0005.33
2023-02-05 18:07:00,,0823.6,4.96,0.00,23.3,22.2,00.0,32.0,25.1,13.6,0000.0,0011.45,0005.91,0005.28
2023-02-05 18:08:00,,0823.7,5.04,0.00,23.3,22.3,00.0,32.0,25.1,13.5,0000.0,0011.43,0005.88,0005.27
2023-02-05 18:09:00,,0823.7,5.01,0.00,23.3,22.3,00.0,32.0,25.1,13.4,0000.0,0010.68,0005.86,0005.26
2023-02-05 18:10:00,,0823.7,4.95,0.00,23.4,22.3,00.0,32.1,25.1,13.4,0000.0,0010.37,0005.80,0005.25
2023-02-05 18:11:00,,0823.6,5.00,0.00,23.4,22.3,00.0,32.1,25.1,13.6,0000.0,0010.27,0005.77,0005.22
2023-02-05 18:12:00,,0823.4,5.03,0.00,23.4,22.3,00.0,32.1,25.2,13.6,0000.0,0010.28,0005.78,0005.23
2023-02-05 18:13:00,,0823.4,4.96,0.00,23.4,22.3,00.0,32.1,25.3,13.3,0000.0,0010.10,0005.76,0005.24
2023-02-05 18:14:00,,0823.4,5.01,0.00,23.4,22.3,00.0,32.1,25.2,13.4,0000.0,0010.09,0005.75,0005.25
2023-02-05 18:15:00,,0823.4,5.03,0.00,23.4,22.3,00.0,32.1,25.3,13.5,0000.0,0010.05,0005.75,0005.26
2023-02-05 18:16:00,,0823.3,4.95,0.00,23.4,22.3,00.0,32.1,25.3,13.5,0000.0,0009.81,0005.72,0005.26
2023-02-05 18:17:00,,0823.3,5.02,0.00,23.4,22.3,00.0,32.1,25.3,13.4,0000.0,0009.53,0005.74,0005.25
2023-02-05 18:18:00,,0823.4,5.02,0.00,23.4,22.2,00.0,32.2,25.3,13.5,0000.0,0009.90,0005.74,0005.26
2023-02-05 18:19:00,,0823.3,4.96,0.00,23.4,22.2,00.0,32.2,25.3,13.5,0000.0,0009.94,0005.77,0005.27
2023-02-05 18:20:00,,0823.3,5.00,0.00,23.4,22.2,00.0,32.2,25.3,13.5,0000.0,0010.50,0005.79,0005.29
2023-02-05 18:21:00,,0823.2,5.01,0.00,23.4,22.2,00.0,32.2,25.3,13.3,0000.0,0010.87,0005.83,0005.30
2023-02-05 18:22:00,,0823.2,4.97,0.00,23.4,22.3,00.0,32.2,25.3,13.4,0000.0,0010.83,0005.83,0005.32
2023-02-05 18:23:00,,0823.2,5.03,0.00,23.5,22.3,00.0,32.2,25.3,13.4,0000.0,0010.76,0005.84,0005.34
2023-02-05 18:24:00,,0823.2,5.01,0.00,23.5,22.2,00.0,32.2,25.3,13.3,0000.0,0010.72,0005.85,0005.34
2023-02-05 18:25:00,,0823.2,4.95,0.00,23.5,22.2,00.0,32.2,25.3,13.3,0000.0,0010.46,0005.85,0005.36
2023-02-05 18:26:00,,0823.2,5.03,0.00,23.5,22.2,00.0,32.2,25.3,13.2,0000.0,0010.37,0005.85,0005.36
2023-02-05 18:27:00,,0823.1,4.99,0.00,23.5,22.2,00.0,32.2,25.3,13.1,0000.0,0010.56,0005.91,0005.38
2023-02-05 18:28:00,,0823.1,4.96,0.00,23.5,22.2,00.0,32.2,25.3,13.2,0000.0,0010.49,0005.92,0005.39
2023-02-05 18:29:00,,0823.1,5.03,0.00,23.5,22.2,00.0,32.2,25.3,13.1,0000.0,0010.22,0005.94,0005.40
2023-02-05 18:30:00,,0823.1,5.00,0.00,23.5,22.2,00.0,32.2,25.3,13.2,0000.0,0010.20,0005.96,0005.41
2023-02-05 18:31:00,,0823.0,4.98,0.00,23.5,22.2,00.0,32.2,25.3,13.3,0000.0,0009.70,0005.96,0005.42
2023-02-05 18:32:00,,0823.0,5.03,0.00,23.5,22.2,00.0,32.2,25.2,13.4,0000.0,0009.27,0005.95,0005.43
2023-02-05 18:33:00,,0823.0,4.99,0.00,23.5,22.3,00.0,32.2,25.3,13.1,0000.0,0009.33,0005.95,0005.41
2023-02-05 18:34:00,,0823.0,4.99,0.00,23.5,22.3,00.0,32.3,25.3,13.3,0000.0,0010.16,0005.97,0005.42
2023-02-05 18:35:00,,0823.1,5.03,0.00,23.5,22.3,00.0,32.3,25.3,13.4,0000.0,0010.19,0005.98,0005.44
2023-02-05 18:36:00,,0823.1,4.98,0.00,23.5,22.3,00.0,32.3,25.3,13.2,0000.0,0010.13,0005.96,0005.43
2023-02-05 18:37:00,,0823.0,4.99,0.00,23.5,22.3,00.0,32.3,25.3,13.1,0000.0,0010.13,0005.95,0005.43
2023-02-05 18:38:00,,0822.9,5.03,0.00,23.5,22.3,00.0,32.3,25.3,13.0,0000.0,0009.99,0005.90,0005.42
2023-02-05 18:39:00,,0823.0,4.97,0.00,23.5,22.3,00.0,32.3,25.3,13.0,0000.0,0009.76,0005.85,0005.42
2023-02-05 18:40:00,,0823.0,5.00,0.00,23.5,22.3,00.0,32.3,25.3,12.9,0000.0,0009.64,0005.83,0005.43
2023-02-05 18:41:00,,0823.0,5.03,0.00,23.5,22.4,00.0,32.3,25.3,12.8,0000.0,0009.66,0005.82,0005.44
2023-02-05 18:42:00,,0822.9,4.96,0.00,23.5,22.4,00.0,32.3,25.3,13.3,0000.0,0009.83,0005.84,0005.45
2023-02-05 18:43:00,,0822.9,5.00,0.00,23.5,22.4,00.0,32.3,25.3,13.0,0000.0,0009.97,0005.88,0005.47
2023-02-05 18:44:00,,0822.9,5.02,0.00,23.5,22.4,00.0,32.3,25.4,12.6,0000.0,0009.88,0005.88,0005.50
2023-02-05 18:45:00,,0822.7,4.95,0.00,23.5,22.4,00.0,32.3,25.4,12.8,0000.0,0009.08,0005.90,0005.52
2023-02-05 18:46:00,,0822.6,5.02,0.00,23.6,22.4,00.0,32.3,25.4,12.7,0000.0,0009.35,0005.93,0005.54
2023-02-05 18:47:00,,0822.6,5.01,0.00,23.6,22.4,00.0,32.3,25.4,12.9,0000.0,0009.72,0005.98,0005.56
2023-02-05 18:48:00,,0822.7,4.94,0.00,23.6,22.4,00.0,32.3,25.5,12.6,0000.0,0009.70,0005.99,0005.60
2023-02-05 18:49:00,,0822.8,5.01,0.00,23.6,22.4,00.0,32.3,25.4,12.7,0000.0,0009.62,0006.00,0005.63
2023-02-05 18:50:00,,0822.8,5.02,0.00,23.6,22.4,00.0,32.4,25.4,12.8,0000.0,0009.64,0006.04,0005.67
2023-02-05 18:51:00,,0822.7,4.95,0.00,23.6,22.4,00.0,32.4,25.4,12.7,0000.0,0009.57,0006.08,0005.70
2023-02-05 18:52:00,,0822.6,5.03,0.00,23.6,22.4,00.0,32.4,25.5,12.4,0000.0,0009.56,0006.10,0005.73
2023-02-05 18:53:00,,0822.6,5.01,0.00,23.6,22.5,00.0,32.4,25.5,12.8,0000.0,0009.41,0006.10,0005.73
2023-02-05 18:54:00,,0822.6,4.96,0.00,23.6,22.5,00.0,32.4,25.5,12.5,0000.0,0009.80,0006.08,0005.74
2023-02-05 18:55:00,,0822.6,5.04,0.00,23.6,22.5,00.0,32.4,25.5,12.4,0000.0,0009.84,0006.09,0005.76
2023-02-05 18:56:00,,0822.6,4.95,0.00,23.6,22.5,00.0,32.4,25.5,12.5,0000.0,0009.84,0006.09,0005.76
2023-02-05 18:57:00,,0822.6,5.02,0.00,23.7,22.5,00.0,32.4,25.5,12.6,0000.0,0009.73,0006.09,0005.77
2023-02-05 18:58:00,,0822.6,5.05,0.00,23.7,22.6,00.0,32.4,25.5,12.4,0000.0,0009.34,0006.09,0005.77
2023-02-05 18:59:00,,0822.5,4.94,0.00,23.7,22.6,00.0,32.4,25.5,12.3,0000.0,0009.38,0006.09,0005.76
